Location: Kaarina
(60.4167°N, 22.4167°E)
Time: 12:57:42
(UTC+03:00)

Cosmos 1697 Rocket - Pass Details

Date: 24 August 2019
Orbit: 831 x 844 km, 71.0° (Epoch: 20 October)

Event Time Altitude Azimuth Distance (km) Brightness Sun altitude
Rises 22:45:53 0° 320° (NW) 3,415 8.1 -11.3°
Reaches altitude 10° 22:48:34 10° 311° (NW) 2,477 6.7 -11.5°
Maximum altitude 22:53:30 32° 251° (WSW) 1,432 4.1 -11.9°
Drops below altitude 10° 22:58:25 10° 190° (S) 2,465 4.7 -12.3°
Enters shadow 22:59:24 - 186° (S) 2,798 5.0 -12.4°
